User: anonymous
Location: Daybis Observatory
(33.4273°N, 88.8061°W)
Time: 08:00:07
(UTC-05:00)
Language:

Coronas F rocket - Orbit

View from above orbital plane
View from above orbital plane
View from above satellite
View from above satellite

Ground track
Ground track

The orbit data is extracted from the following two-line orbital elements,

1 26874U 01032B   14204.16244620  .00003690  00000-0  58375-4 0  7324
2 26874 082.4751 305.5933 0013520 281.4773 078.4961 15.52949354726880
Epoch (UTC): 23 July 2014 03:53:55
Eccentricity: 0.0013520
inclination: 82.4751°
perigee height: 399 km
apogee height: 417 km
right ascension of ascending node: 305.5933°
argument of perigee: 281.4773°
revolutions per day: 15.52949354
mean anomaly at epoch: 78.4961°
orbit number at epoch: 72688

The dashed part of the orbit path shows where the satellite is in the earth's shadow,  

DLR